GW2652 Weather Reports


time (UTC)temp
C
wind
direction
speed
KPH
gust
KPH
rain 1hr
cm
rain 24hr
cm
rain mn
cm
humidity
%
barometer
mb
20260505181517 20 189 0.0 1.6 0.00 0.18 0.18 65 1004.3
20260505181015 20 252 14.5 20.9 0.00 0.18 0.18 67 1004.8
20260505180510 22 278 3.2 6.4 0.00 0.18 0.18 62 1004.9
20260505180008 22 315 6.4 9.7 0.00 0.18 0.18 52 1004.6
20260505175502 22 181 6.4 11.3 0.00 0.18 0.18 50 1004.5
20260505174959 22 101 4.8 6.4 0.00 0.18 0.18 52 1004.2
20260505174456 22 149 3.2 3.2 0.00 0.18 0.18 52 1004.5
20260505173947 22 268 8.0 11.3 0.00 0.18 0.18 51 1004.5
20260505173444 22 202 4.8 6.4 0.00 0.18 0.18 51 1004.6
20260505172941 22 197 6.4 6.4 0.00 0.18 0.18 51 1004.5
20260505172439 22 293 3.2 4.8 0.00 0.18 0.18 51 1004.4
20260505171938 22 257 16.1 20.9 0.00 0.18 0.18 50 1004.5
20260505171436 23 317 8.0 12.9 0.00 0.18 0.18 50 1004.2
20260505170932 23 210 6.4 9.7 0.00 0.18 0.18 50 1003.8
20260505170429 23 193 4.8 11.3 0.00 0.18 0.18 52 1003.8
20260505165924 23 196 9.7 11.3 0.00 0.18 0.18 50 1003.8
20260505165420 23 233 6.4 9.7 0.00 0.18 0.18 48 1004.1
20260505164916 24 264 6.4 11.3 0.00 0.18 0.18 49 1004.2
20260505164413 23 292 3.2 4.8 0.00 0.18 0.18 49 1004.1
20260505163911 23 200 9.7 12.9 0.00 0.18 0.18 50 1004.2
20260505163410 23 156 6.4 12.9 0.00 0.18 0.18 51 1004.3
20260505162908 23 261 11.3 12.9 0.00 0.18 0.18 49 1004.4
20260505162404 23 304 19.3 25.7 0.00 0.18 0.18 50 1004.7
20260505161901 24 210 1.6 1.6 0.00 0.18 0.18 49 1004.4
20260505161358 23 106 3.2 4.8 0.00 0.18 0.18 47 1004.4
20260505160855 23 208 4.8 6.4 0.00 0.18 0.18 51 1004.6
20260505160353 23 264 6.4 9.7 0.00 0.18 0.18 52 1004.6
20260505153332 22 317 14.5 16.1 0.00 0.18 0.18 50 1004.8
20260505152828 23 270 16.1 22.5 0.00 0.18 0.18 48 1004.8
20260505152325 23 195 11.3 16.1 0.00 0.18 0.18 50 1004.7
20260505151820 23 231 8.0 11.3 0.00 0.18 0.18 48 1004.7
20260505151317 22 197 6.4 11.3 0.00 0.18 0.18 49 1004.7
20260505150813 23 213 4.8 4.8 0.00 0.18 0.18 50 1004.6
20260505150310 22 172 3.2 3.2 0.00 0.18 0.18 51 1004.5
20260505140235 20 286 6.4 9.7 0.00 0.18 0.18 62 1005.4
20260505130159 14 169 0.0 0.0 0.00 0.18 0.18 95 1006.0
20260505124649 13 169 0.0 0.0 0.00 0.18 0.18 99 1006.1
20260505124145 13 169 0.0 0.0 0.00 0.18 0.18 98 1006.0
20260505123641 12 169 0.0 0.0 0.00 0.18 0.18 98 1005.9
20260505123138 12 169 0.0 0.0 0.00 0.18 0.18 98 1005.9
20260505122634 12 186 0.0 0.0 0.00 0.18 0.18 97 1005.9
20260505122132 12 186 0.0 0.0 0.00 0.18 0.18 95 1006.0
20260505121623 12 168 0.0 0.0 0.61 0.18 0.18 96 1005.7
20260505121120 13 143 1.6 1.6 1.07 0.18 0.18 90 1005.6
20260505120615 15 122 1.6 1.6 0.48 0.08 0.08 83 1006.1
20260505120111 15 208 3.2 3.2 0.00 0.00 0.00 77 1006.7
20260505115606 15 117 3.2 3.2 0.00 0.00 0.00 73 1006.0
20260505115104 15 142 0.0 1.6 0.00 0.00 0.00 71 1006.1
20260505114601 15 262 3.2 4.8 0.00 0.00 0.00 72 1006.0
20260505114057 15 136 4.8 6.4 0.00 0.00 0.00 73 1005.9
20260505113553 15 240 0.0 1.6 0.00 0.00 0.00 72 1005.9
20260505113050 15 243 1.6 1.6 0.00 0.00 0.00 73 1005.8
20260505112546 14 102 1.6 3.2 0.00 0.00 0.00 76 1005.9
20260505112044 14 139 0.0 1.6 0.00 0.00 0.00 77 1006.1
20260505111538 13 151 1.6 1.6 0.00 0.00 0.00 78 1006.1
20260505111035 12 151 0.0 0.0 0.00 0.00 0.00 80 1006.0
20260505110531 12 132 0.0 0.0 0.00 0.00 0.00 85 1005.7
20260505102004 7 168 0.0 0.0 0.00 0.00 0.00 98 1005.6
20260505101503 7 141 0.0 0.0 0.00 0.00 0.00 98 1005.2
20260505100958 7 141 0.0 0.0 0.00 0.00 0.00 98 1005.2
20260505100455 7 141 0.0 1.6 0.00 0.00 0.00 98 1005.1
20260505095951 7 142 0.0 0.0 0.00 0.00 0.00 98 1005.0
20260505095448 7 142 0.0 0.0 0.00 0.00 0.00 98 1004.8
20260505094944 7 142 0.0 0.0 0.00 0.00 0.00 98 1004.9
20260505094441 7 141 0.0 0.0 0.00 0.00 0.00 98 1004.8
20260505093937 7 141 0.0 0.0 0.00 0.00 0.00 97 1004.7
20260505093434 7 141 0.0 0.0 0.00 0.00 0.00 98 1004.8
20260505092931 7 140 1.6 1.6 0.00 0.00 0.00 98 1004.9
20260505092429 8 140 0.0 0.0 0.00 0.00 0.00 98 1004.6
20260505091926 8 140 0.0 0.0 0.00 0.00 0.00 98 1004.8
20260505091424 8 140 0.0 0.0 0.00 0.00 0.00 97 1004.7
20260505090921 8 140 0.0 0.0 0.00 0.00 0.00 97 1004.8
20260505090420 8 140 0.0 0.0 0.00 0.00 0.00 97 1004.5
20260505085917 8 140 0.0 0.0 0.00 0.00 0.00 97 1004.7
20260505085415 8 140 0.0 0.0 0.00 0.00 0.00 97 1004.7
20260505084912 9 140 0.0 0.0 0.00 0.00 0.00 96 1004.7
20260505084410 9 140 0.0 0.0 0.00 0.00 0.00 95 1004.7
20260505083908 9 140 0.0 0.0 0.00 0.00 0.00 93 1004.7
20260505083406 10 140 0.0 0.0 0.00 0.00 0.00 92 1004.8
20260505082901 10 151 0.0 0.0 0.00 0.00 0.00 93 1004.7
20260505082357 10 132 0.0 1.6 0.00 0.00 0.00 93 1004.6
20260505081854 10 141 0.0 0.0 0.00 0.00 0.00 94 1004.7
20260505081351 10 141 0.0 0.0 0.00 0.00 0.00 93 1004.6
20260505080848 10 141 0.0 0.0 0.00 0.00 0.00 93 1004.7
20260505080343 10 140 1.6 1.6 0.00 0.00 0.00 92 1004.4
20260505075839 10 141 0.0 0.0 0.00 0.00 0.00 92 1004.7
20260505075336 10 139 0.0 0.0 0.00 0.00 0.00 92 1004.7
20260505074833 11 139 0.0 0.0 0.00 0.00 0.00 91 1004.5
20260505074330 11 131 0.0 0.0 0.00 0.00 0.00 86 1004.6
20260505073828 12 174 0.0 0.0 0.00 0.00 0.00 82 1004.9
20260505073326 13 159 0.0 1.6 0.00 0.00 0.00 75 1004.8
20260505072822 13 133 0.0 0.0 0.00 0.00 0.00 69 1004.8
20260505072319 12 210 1.6 1.6 0.00 0.00 0.00 71 1004.8
20260505071815 12 135 1.6 3.2 0.00 0.00 0.00 70 1004.9
20260505071311 12 137 1.6 1.6 0.00 0.00 0.00 71 1004.8
20260505070809 12 136 0.0 0.0 0.00 0.00 0.00 69 1004.8
20260505070306 12 168 0.0 1.6 0.00 0.00 0.00 73 1004.9
20260505065800 12 137 1.6 1.6 0.00 0.00 0.00 70 1005.1
20260505065258 11 128 1.6 3.2 0.00 0.00 0.00 72 1005.1
20260505064755 12 117 0.0 1.6 0.00 0.00 0.00 69 1005.1
20260505064252 12 144 0.0 0.0 0.00 0.00 0.00 71 1005.1
20260505063750 12 128 0.0 1.6 0.00 0.00 0.00 69 1004.9
20260505063246 12 141 0.0 0.0 0.00 0.00 0.00 68 1004.8
20260505062743 12 191 1.6 1.6 0.00 0.00 0.00 69 1004.8
20260505062240 13 136 0.0 1.6 0.00 0.00 0.00 68 1004.8
20260505061737 12 191 0.0 0.0 0.00 0.00 0.00 69 1004.8
20260505061235 12 147 1.6 1.6 0.00 0.00 0.00 68 1004.8
20260505060732 12 162 1.6 1.6 0.00 0.00 0.00 69 1004.7
20260505060229 12 121 0.0 1.6 0.00 0.00 0.00 67 1005.0
20260505055724 12 119 1.6 1.6 0.00 0.00 0.00 67 1004.9
20260505055221 12 200 0.0 0.0 0.00 0.00 0.00 72 1004.9
20260505054718 11 167 0.0 1.6 0.00 0.00 0.00 74 1005.0
20260505054216 11 148 0.0 1.6 0.00 0.00 0.00 72 1005.0
20260505053714 12 127 3.2 3.2 0.00 0.00 0.00 72 1005.0
20260505053210 12 153 0.0 1.6 0.00 0.00 0.00 71 1005.0
20260505052708 12 144 1.6 3.2 0.00 0.00 0.00 69 1005.0
20260505052204 13 155 0.0 1.6 0.00 0.00 0.00 66 1005.0
20260505051701 13 158 3.2 4.8 0.00 0.00 0.00 65 1005.3
20260505051159 13 116 1.6 1.6 0.00 0.00 0.00 65 1005.4
20260505050657 13 148 0.0 0.0 0.00 0.00 0.00 64 1005.3
20260505050155 13 144 3.2 6.4 0.00 0.00 0.00 64 1005.3
20260505041625 13 134 0.0 0.0 0.00 0.00 0.00 65 1005.2
20260505041122 14 134 0.0 0.0 0.00 0.00 0.00 63 1005.1
20260505040619 14 174 0.0 0.0 0.00 0.00 0.00 64 1005.3
20260505040116 14 157 0.0 1.6 0.00 0.00 0.00 61 1004.9
20260505035613 14 165 0.0 1.6 0.00 0.00 0.00 64 1005.0
20260505035109 14 161 1.6 1.6 0.00 0.00 0.00 63 1004.8
20260505034606 15 153 0.0 0.0 0.00 0.00 0.00 63 1004.8
20260505034102 15 225 3.2 3.2 0.00 0.00 0.00 60 1004.7
20260505033559 15 136 0.0 1.6 0.00 0.00 0.00 64 1004.9
20260505033058 15 185 0.0 0.0 0.00 0.00 0.00 60 1005.0
20260505032555 14 240 3.2 3.2 0.00 0.00 0.00 60 1004.9
20260505032051 15 160 0.0 1.6 0.00 0.00 0.00 61 1005.0
20260505031549 15 193 0.0 0.0 0.00 0.00 0.00 60 1005.0
20260505031045 15 144 1.6 1.6 0.00 0.00 0.00 61 1004.8
20260505030542 15 146 1.6 1.6 0.00 0.00 0.00 59 1005.0
20260505030038 15 182 0.0 0.0 0.00 0.00 0.00 59 1005.0
20260505025534 14 220 1.6 1.6 0.00 0.00 0.00 60 1004.9
20260505025033 15 151 0.0 0.0 0.00 0.00 0.00 61 1005.0
20260505024530 15 189 0.0 1.6 0.00 0.00 0.00 61 1004.9
20260505024027 15 196 0.0 1.6 0.00 0.00 0.00 63 1005.2
20260505023524 15 150 0.0 0.0 0.00 0.00 0.00 60 1005.0
20260505023021 14 172 1.6 1.6 0.00 0.00 0.00 62 1004.9
20260505022519 14 132 0.0 1.6 0.00 0.00 0.00 65 1005.1
20260505022016 13 168 1.6 1.6 0.00 0.00 0.00 63 1005.0
20260505021512 12 145 1.6 1.6 0.00 0.00 0.00 63 1005.2
20260505021009 12 196 0.0 0.0 0.00 0.00 0.00 69 1005.4
20260505020503 12 158 1.6 1.6 0.00 0.00 0.00 67 1005.2
20260505020000 11 138 1.6 3.2 0.00 0.00 0.00 72 1005.4
20260505015458 10 180 0.0 0.0 0.00 0.00 0.00 79 1005.2
20260505014954 10 149 0.0 0.0 0.00 0.00 0.00 81 1005.1
20260505014451 10 177 0.0 1.6 0.00 0.00 0.00 81 1005.0
20260505013949 10 181 0.0 0.0 0.00 0.00 0.00 80 1005.1
20260505013446 10 181 0.0 0.0 0.00 0.00 0.00 79 1005.2
20260505012943 10 181 1.6 1.6 0.00 0.00 0.00 78 1005.1
20260505012441 11 181 0.0 0.0 0.00 0.00 0.00 78 1005.1
20260505011938 11 181 0.0 0.0 0.00 0.00 0.00 76 1004.9
20260505011433 11 181 0.0 1.6 0.00 0.00 0.00 76 1004.9
20260505010930 11 181 0.0 0.0 0.00 0.00 0.00 75 1004.8
20260505010426 11 182 0.0 0.0 0.00 0.00 0.00 73 1004.9
20260505005922 12 177 0.0 0.0 0.00 0.00 0.00 72 1004.8
20260505005419 12 179 0.0 0.0 0.00 0.00 0.00 71 1004.8
20260505004917 13 181 1.6 1.6 0.00 0.00 0.00 66 1004.7
20260505004413 14 161 0.0 0.0 0.00 0.00 0.00 62 1004.8
20260505003910 15 161 0.0 0.0 0.00 0.00 0.00 59 1004.6
20260505003407 15 161 0.0 0.0 0.00 0.00 0.00 59 1004.5
20260505002904 15 150 0.0 1.6 0.00 0.00 0.00 53 1004.5
20260505002400 15 135 0.0 1.6 0.00 0.00 0.00 55 1004.5
20260505001859 16 156 0.0 0.0 0.00 0.00 0.00 57 1004.6
20260505001355 16 158 0.0 0.0 0.00 0.00 0.00 53 1004.5
20260505000853 16 219 1.6 1.6 0.00 0.00 0.00 52 1004.6
20260505000351 16 200 0.0 1.6 0.00 0.00 0.00 52 1004.4
20260504235847 16 175 0.0 0.0 0.00 0.00 0.00 54 1004.2
20260504235344 17 177 0.0 0.0 0.00 0.00 0.00 52 1004.4
20260504234840 17 185 1.6 1.6 0.00 0.00 0.00 51 1004.3
20260504234338 18 155 0.0 0.0 0.00 0.00 0.00 49 1004.1
20260504233835 18 160 0.0 0.0 0.00 0.00 0.00 45 1004.1
20260504233330 18 155 1.6 3.2 0.00 0.00 0.00 44 1004.2
20260504232827 19 135 4.8 4.8 0.00 0.00 0.00 43 1004.0
20260504232324 19 158 1.6 3.2 0.00 0.00 0.00 44 1004.0
20260504231821 20 256 6.4 6.4 0.00 0.00 0.00 43 1003.9
20260504231318 20 114 3.2 4.8 0.00 0.00 0.00 42 1004.0
20260504230814 20 222 6.4 9.7 0.00 0.00 0.00 42 1004.1
20260504230312 20 241 3.2 4.8 0.00 0.00 0.00 42 1004.1
20260504225810 20 275 11.3 12.9 0.00 0.00 0.00 41 1004.2
20260504225306 20 204 3.2 4.8 0.00 0.00 0.00 42 1004.1
20260504224804 20 252 6.4 6.4 0.00 0.00 0.00 41 1004.1
20260504224301 20 215 8.0 11.3 0.00 0.00 0.00 40 1004.2
20260504223757 20 228 8.0 11.3 0.00 0.00 0.00 40 1004.0
20260504223253 21 316 8.0 9.7 0.00 0.00 0.00 40 1003.9
20260504222750 21 243 6.4 6.4 0.00 0.00 0.00 39 1004.0
20260504222246 21 216 3.2 3.2 0.00 0.00 0.00 40 1003.7
20260504221744 21 177 4.8 9.7 0.00 0.00 0.00 39 1004.2
20260504221241 21 183 1.6 3.2 0.00 0.00 0.00 39 1004.1
20260504220738 21 327 9.7 12.9 0.00 0.00 0.00 38 1004.4
20260504220235 21 319 6.4 12.9 0.00 0.00 0.00 40 1003.9
20260504215732 21 323 9.7 11.3 0.00 0.00 0.00 38 1004.1
20260504215229 21 311 6.4 6.4 0.00 0.00 0.00 39 1004.0
20260504214724 21 270 12.9 16.1 0.00 0.00 0.00 38 1004.0
20260504214216 21 323 6.4 9.7 0.00 0.00 0.00 40 1004.1
20260504213712 20 232 9.7 12.9 0.00 0.00 0.00 40 1004.0
20260504213209 21 246 11.3 12.9 0.00 0.00 0.00 39 1004.1
20260504212706 20 291 4.8 6.4 0.00 0.00 0.00 40 1003.9
20260504212203 20 189 4.8 4.8 0.00 0.00 0.00 43 1004.1
20260504211700 21 244 9.7 12.9 0.00 0.00 0.00 40 1004.1
20260504211156 20 255 6.4 9.7 0.00 0.00 0.00 41 1003.9
20260504210654 21 222 8.0 11.3 0.00 0.00 0.00 41 1004.4
20260504210150 21 230 6.4 9.7 0.00 0.00 0.00 39 1004.4
20260504205648 20 270 3.2 4.8 0.00 0.00 0.00 41 1004.3
20260504205144 20 219 3.2 3.2 0.00 0.00 0.00 41 1004.1
20260504204643 20 303 9.7 12.9 0.00 0.00 0.00 41 1004.1
20260504204142 20 200 6.4 11.3 0.00 0.00 0.00 42 1004.4
20260504203640 20 263 3.2 3.2 0.00 0.00 0.00 42 1004.7
20260504203137 20 305 6.4 9.7 0.00 0.00 0.00 41 1004.6
20260504202632 20 307 11.3 14.5 0.00 0.00 0.00 41 1004.4
20260504202129 19 305 4.8 4.8 0.00 0.00 0.00 42 1004.4
20260504201625 19 188 4.8 6.4 0.00 0.00 0.00 43 1004.7
20260504201124 20 291 9.7 12.9 0.00 0.00 0.00 42 1005.0
20260504200620 20 181 3.2 3.2 0.00 0.00 0.00 43 1004.8
20260504200117 19 264 4.8 4.8 0.00 0.00 0.00 44 1005.0
20260504195613 18 199 6.4 6.4 0.00 0.00 0.00 44 1004.8
20260504195109 19 170 6.4 9.7 0.00 0.00 0.00 43 1005.1
20260504194606 20 181 3.2 3.2 0.00 0.00 0.00 43 1005.1
20260504194102 18 290 4.8 4.8 0.00 0.00 0.00 43 1005.4
20260504193558 18 281 9.7 12.9 0.00 0.00 0.00 44 1005.1
20260504193057 18 321 8.0 16.1 0.00 0.00 0.00 44 1005.2
20260504192555 19 264 9.7 11.3 0.00 0.00 0.00 44 1005.4
20260504192052 19 262 3.2 3.2 0.00 0.00 0.00 42 1005.2
20260504191550 20 265 8.0 11.3 0.00 0.00 0.00 42 1005.0
20260504191046 21 218 4.8 6.4 0.00 0.00 0.00 42 1005.1
20260504190543 20 228 12.9 24.1 0.00 0.00 0.00 41 1005.2
20260504190039 20 294 16.1 20.9 0.00 0.00 0.00 41 1005.7
20260504185536 20 300 12.9 17.7 0.00 0.00 0.00 42 1005.6
20260504185033 20 252 8.0 11.3 0.00 0.00 0.00 41 1005.2
20260504184528 19 192 6.4 12.9 0.00 0.00 0.00 43 1005.4
20260504184023 18 269 9.7 11.3 0.00 0.00 0.00 46 1005.4
20260504183521 18 302 14.5 22.5 0.00 0.00 0.00 44 1005.7
20260504183019 19 296 14.5 17.7 0.00 0.00 0.00 44 1005.7
20260504182515 19 295 12.9 17.7 0.00 0.00 0.00 43 1005.8
20260504182013 18 211 8.0 12.9 0.00 0.00 0.00 46 1005.7